| time (UTC) | temp C | wind direction | speed KPH | gust KPH | rain 1hr cm | rain 24hr cm | rain mn cm | humidity % | barometer mb |
| 20260502151520 | 12 | 167 | 3.2 | 9.7 | 0.00 | 0.10 | 0.10 | 78 | 1009.4 |
| 20260502150521 | 12 | 166 | 3.2 | 8.0 | 0.00 | 0.10 | 0.10 | 79 | 1009.4 |
| 20260502130508 | 10 | 169 | 0.0 | 3.2 | 0.00 | 0.10 | 0.10 | 91 | 1009.7 |
| 20260502123508 | 9 | 169 | 1.6 | 6.4 | 0.03 | 0.10 | 0.10 | 95 | 1009.9 |
| 20260502122508 | 9 | 169 | 0.0 | 1.6 | 0.03 | 0.10 | 0.10 | 95 | 1009.9 |
| 20260502121508 | 8 | 169 | 0.0 | 0.0 | 0.03 | 0.10 | 0.10 | 94 | 1010.0 |
| 20260502120508 | 8 | 169 | 0.0 | 1.6 | 0.03 | 0.10 | 0.10 | 94 | 1010.3 |
| 20260502115507 | 8 | 169 | 0.0 | 3.2 | 0.03 | 0.10 | 0.10 | 94 | 1010.2 |
| 20260502114508 | 8 | 169 | 0.0 | 3.2 | 0.03 | 0.10 | 0.10 | 94 | 1010.2 |
| 20260502113502 | 8 | 170 | 0.0 | 1.6 | 0.03 | 0.08 | 0.08 | 94 | 1010.0 |
| 20260502112504 | 8 | 170 | 0.0 | 3.2 | 0.03 | 0.08 | 0.08 | 94 | 1009.8 |
| 20260502111502 | 8 | 169 | 0.0 | 3.2 | 0.03 | 0.08 | 0.08 | 94 | 1010.0 |
| 20260502110500 | 8 | 169 | 0.0 | 1.6 | 0.03 | 0.08 | 0.08 | 94 | 1010.1 |
| 20260502105502 | 8 | 169 | 0.0 | 1.6 | 0.03 | 0.08 | 0.08 | 94 | 1010.3 |
| 20260502104501 | 8 | 169 | 0.0 | 3.2 | 0.05 | 0.08 | 0.08 | 94 | 1010.2 |
| 20260502103500 | 8 | 170 | 0.0 | 6.4 | 0.03 | 0.05 | 0.05 | 94 | 1010.4 |
| 20260502102944 | 8 | 169 | 0.0 | 1.6 | 0.03 | 0.05 | 0.05 | 94 | 1010.0 |
| 20260502101500 | 8 | 169 | 0.0 | 1.6 | 0.03 | 0.05 | 0.05 | 94 | 1009.6 |
| 20260502100501 | 8 | 169 | 0.0 | 3.2 | 0.03 | 0.05 | 0.05 | 93 | 1009.4 |
| 20260502091457 | 8 | 170 | 0.0 | 1.6 | 0.00 | 0.03 | 0.03 | 93 | 1009.5 |
| 20260502090457 | 8 | 170 | 0.0 | 1.6 | 0.00 | 0.03 | 0.03 | 93 | 1009.5 |
| 20260502071454 | 9 | 170 | 0.0 | 1.6 | 0.00 | 0.00 | 0.00 | 89 | 1009.2 |
| 20260502070453 | 9 | 169 | 0.0 | 1.6 | 0.00 | 0.00 | 0.00 | 87 | 1009.0 |
| 20260502065453 | 10 | 170 | 0.0 | 1.6 | 0.00 | 0.00 | 0.00 | 86 | 1009.5 |
| 20260502064927 | 10 | 169 | 0.0 | 1.6 | 0.00 | 0.00 | 0.00 | 85 | 1009.3 |
| 20260502063452 | 10 | 170 | 0.0 | 0.0 | 0.00 | 0.00 | 0.00 | 83 | 1009.3 |
| 20260502062931 | 10 | 170 | 0.0 | 3.2 | 0.00 | 0.00 | 0.00 | 82 | 1009.5 |
| 20260502061447 | 10 | 170 | 0.0 | 3.2 | 0.00 | 0.00 | 0.00 | 81 | 1009.2 |
| 20260502060447 | 10 | 170 | 0.0 | 3.2 | 0.00 | 0.00 | 0.00 | 81 | 1009.5 |
| 20260502055445 | 10 | 170 | 0.0 | 0.0 | 0.00 | 0.00 | 0.00 | 80 | 1009.6 |
| 20260502054444 | 10 | 170 | 0.0 | 1.6 | 0.00 | 0.00 | 0.00 | 80 | 1009.7 |
| 20260502053442 | 10 | 169 | 0.0 | 0.0 | 0.00 | 0.00 | 0.00 | 80 | 1009.5 |
| 20260502052921 | 10 | 170 | 0.0 | 0.0 | 0.00 | 0.00 | 0.00 | 79 | 1009.4 |
| 20260502051444 | 10 | 170 | 0.0 | 1.6 | 0.00 | 0.00 | 0.00 | 79 | 1009.6 |
| 20260502050444 | 10 | 170 | 0.0 | 0.0 | 0.00 | 0.00 | 0.00 | 78 | 1009.7 |
| 20260502045443 | 10 | 169 | 0.0 | 0.0 | 0.00 | 0.00 | 0.00 | 78 | 1009.6 |
| 20260502044438 | 10 | 169 | 0.0 | 3.2 | 0.00 | 0.00 | 0.00 | 77 | 1009.7 |
| 20260502043436 | 10 | 170 | 0.0 | 0.0 | 0.00 | 0.00 | 0.00 | 77 | 1009.6 |
| 20260502042435 | 10 | 170 | 0.0 | 0.0 | 0.00 | 0.00 | 0.00 | 77 | 1009.7 |
| 20260502041435 | 11 | 170 | 0.0 | 0.0 | 0.00 | 0.00 | 0.00 | 77 | 1009.6 |
| 20260502040435 | 11 | 170 | 0.0 | 0.0 | 0.00 | 0.00 | 0.00 | 76 | 1009.5 |
| 20260502035433 | 11 | 170 | 0.0 | 0.0 | 0.00 | 0.00 | 0.00 | 74 | 1009.6 |
| 20260502034433 | 11 | 170 | 0.0 | 1.6 | 0.00 | 0.00 | 0.00 | 74 | 1009.6 |
| 20260502033432 | 11 | 169 | 0.0 | 1.6 | 0.00 | 0.00 | 0.00 | 74 | 1009.6 |
| 20260502032434 | 11 | 169 | 0.0 | 0.0 | 0.00 | 0.00 | 0.00 | 75 | 1009.7 |
| 20260502031433 | 11 | 170 | 0.0 | 1.6 | 0.00 | 0.00 | 0.00 | 73 | 1009.8 |
| 20260502030433 | 11 | 170 | 0.0 | 1.6 | 0.00 | 0.00 | 0.00 | 72 | 1009.8 |
| 20260502025434 | 11 | 170 | 0.0 | 3.2 | 0.00 | 0.00 | 0.00 | 71 | 1009.8 |
| 20260502024434 | 11 | 169 | 1.6 | 3.2 | 0.00 | 0.00 | 0.00 | 70 | 1009.8 |
| 20260502023912 | 11 | 170 | 1.6 | 3.2 | 0.00 | 0.00 | 0.00 | 68 | 1009.8 |
| 20260502022432 | 12 | 170 | 0.0 | 3.2 | 0.00 | 0.00 | 0.00 | 68 | 1009.8 |
| 20260502021434 | 12 | 170 | 0.0 | 3.2 | 0.00 | 0.00 | 0.00 | 66 | 1009.7 |
| 20260502020428 | 12 | 170 | 1.6 | 3.2 | 0.00 | 0.00 | 0.00 | 65 | 1009.8 |
| 20260502015910 | 13 | 170 | 0.0 | 1.6 | 0.00 | 0.00 | 0.00 | 64 | 1009.8 |
| 20260502014427 | 13 | 170 | 0.0 | 6.4 | 0.00 | 0.00 | 0.00 | 62 | 1009.6 |
| 20260502013919 | 13 | 170 | 1.6 | 3.2 | 0.00 | 0.00 | 0.00 | 60 | 1009.5 |
| 20260502012910 | 13 | 170 | 1.6 | 6.4 | 0.00 | 0.00 | 0.00 | 58 | 1009.4 |
| 20260502011426 | 13 | 169 | 1.6 | 6.4 | 0.00 | 0.00 | 0.00 | 57 | 1009.4 |
| 20260502010429 | 13 | 266 | 0.0 | 3.2 | 0.00 | 0.00 | 0.00 | 56 | 1009.2 |
| 20260502005426 | 13 | 266 | 0.0 | 3.2 | 0.00 | 0.00 | 0.00 | 55 | 1009.1 |
| 20260502004424 | 13 | 266 | 0.0 | 3.2 | 0.00 | 0.00 | 0.00 | 52 | 1008.9 |
| 20260502003426 | 14 | 266 | 0.0 | 3.2 | 0.00 | 0.00 | 0.00 | 52 | 1008.8 |
| 20260502002424 | 14 | 266 | 1.6 | 6.4 | 0.00 | 0.00 | 0.00 | 52 | 1008.6 |
| 20260502001427 | 14 | 217 | 0.0 | 4.8 | 0.00 | 0.00 | 0.00 | 53 | 1008.5 |
| 20260502000424 | 14 | 227 | 0.0 | 3.2 | 0.00 | 0.00 | 0.00 | 55 | 1008.4 |
| 20260501235425 | 15 | 227 | 1.6 | 3.2 | 0.00 | 0.00 | 0.00 | 52 | 1008.3 |
| 20260501234426 | 15 | 227 | 1.6 | 3.2 | 0.00 | 0.00 | 0.00 | 49 | 1008.2 |
| 20260501233424 | 15 | 227 | 0.0 | 1.6 | 0.00 | 0.00 | 0.00 | 50 | 1008.0 |
| 20260501232426 | 15 | 227 | 0.0 | 1.6 | 0.00 | 0.00 | 0.00 | 49 | 1007.9 |
| 20260501231420 | 15 | 227 | 0.0 | 1.6 | 0.00 | 0.00 | 0.00 | 51 | 1007.8 |
| 20260501230418 | 16 | 227 | 0.0 | 3.2 | 0.00 | 0.00 | 0.00 | 50 | 1007.7 |
| 20260501225905 | 16 | 227 | 0.0 | 3.2 | 0.00 | 0.00 | 0.00 | 43 | 1007.6 |
| 20260501224420 | 16 | 227 | 3.2 | 11.3 | 0.00 | 0.00 | 0.00 | 44 | 1007.7 |
| 20260501223419 | 16 | 227 | 1.6 | 8.0 | 0.00 | 0.00 | 0.00 | 43 | 1007.6 |
| 20260501222418 | 16 | 225 | 1.6 | 4.8 | 0.00 | 0.00 | 0.00 | 45 | 1007.5 |
| 20260501221419 | 16 | 231 | 0.0 | 1.6 | 0.00 | 0.00 | 0.00 | 45 | 1007.5 |
| 20260501220421 | 16 | 231 | 1.6 | 8.0 | 0.00 | 0.00 | 0.00 | 42 | 1007.6 |
| 20260501215419 | 16 | 250 | 1.6 | 6.4 | 0.00 | 0.00 | 0.00 | 42 | 1007.5 |
| 20260501214414 | 16 | 211 | 1.6 | 8.0 | 0.00 | 0.00 | 0.00 | 41 | 1007.6 |
| 20260501213415 | 16 | 191 | 1.6 | 8.0 | 0.00 | 0.00 | 0.00 | 44 | 1007.7 |
| 20260501212413 | 16 | 229 | 1.6 | 8.0 | 0.00 | 0.00 | 0.00 | 43 | 1007.7 |
| 20260501211413 | 16 | 275 | 0.0 | 3.2 | 0.00 | 0.00 | 0.00 | 43 | 1007.8 |
| 20260501210412 | 16 | 275 | 1.6 | 3.2 | 0.00 | 0.00 | 0.00 | 44 | 1007.7 |
| 20260501205413 | 16 | 275 | 3.2 | 12.9 | 0.00 | 0.00 | 0.00 | 43 | 1007.7 |
| 20260501204414 | 16 | 330 | 1.6 | 8.0 | 0.00 | 0.00 | 0.00 | 40 | 1007.6 |
| 20260501203412 | 16 | 237 | 1.6 | 8.0 | 0.00 | 0.00 | 0.00 | 46 | 1007.6 |
| 20260501202413 | 16 | 261 | 3.2 | 12.9 | 0.00 | 0.00 | 0.00 | 43 | 1007.7 |
| 20260501201408 | 16 | 261 | 4.8 | 16.1 | 0.00 | 0.00 | 0.00 | 41 | 1007.6 |
| 20260501200406 | 16 | 238 | 3.2 | 11.3 | 0.00 | 0.00 | 0.00 | 44 | 1007.5 |
| 20260501195404 | 16 | 262 | 6.4 | 16.1 | 0.00 | 0.00 | 0.00 | 42 | 1007.7 |
| 20260501194404 | 16 | 212 | 4.8 | 11.3 | 0.00 | 0.00 | 0.00 | 42 | 1007.7 |
| 20260501193406 | 16 | 226 | 1.6 | 14.5 | 0.00 | 0.00 | 0.00 | 45 | 1007.8 |
| 20260501192404 | 16 | 78 | 3.2 | 6.4 | 0.00 | 0.00 | 0.00 | 43 | 1007.8 |
| 20260501191405 | 16 | 355 | 3.2 | 11.3 | 0.00 | 0.00 | 0.00 | 43 | 1007.9 |
| 20260501190405 | 15 | 0 | 1.6 | 6.4 | 0.00 | 0.00 | 0.00 | 43 | 1008.2 |
| 20260501185406 | 15 | 340 | 3.2 | 8.0 | 0.00 | 0.00 | 0.00 | 43 | 1008.3 |
| 20260501184400 | 15 | 337 | 1.6 | 6.4 | 0.00 | 0.00 | 0.00 | 42 | 1008.4 |
| 20260501183849 | 16 | 48 | 3.2 | 9.7 | 0.00 | 0.00 | 0.00 | 43 | 1008.5 |
| 20260501182358 | 16 | 331 | 1.6 | 4.8 | 0.00 | 0.00 | 0.00 | 43 | 1008.5 |
| 20260501181837 | 16 | 331 | 3.2 | 14.5 | 0.00 | 0.00 | 0.00 | 44 | 1008.6 |
| 20260501180355 | 16 | 171 | 1.6 | 8.0 | 0.00 | 0.00 | 0.00 | 44 | 1008.4 |
| 20260501175357 | 16 | 171 | 3.2 | 8.0 | 0.00 | 0.00 | 0.00 | 44 | 1008.6 |
| 20260501174356 | 16 | 171 | 3.2 | 9.7 | 0.00 | 0.00 | 0.00 | 43 | 1008.6 |
| 20260501173356 | 15 | 194 | 3.2 | 8.0 | 0.00 | 0.00 | 0.00 | 48 | 1008.6 |
| 20260501172837 | 14 | 26 | 4.8 | 12.9 | 0.00 | 0.00 | 0.00 | 45 | 1008.6 |
| 20260501171356 | 15 | 334 | 3.2 | 11.3 | 0.00 | 0.00 | 0.00 | 43 | 1008.8 |
| 20260501170829 | 15 | 333 | 3.2 | 16.1 | 0.00 | 0.00 | 0.00 | 44 | 1008.9 |
| 20260501165357 | 15 | 330 | 3.2 | 9.7 | 0.00 | 0.00 | 0.00 | 44 | 1009.0 |
| 20260501164355 | 15 | 328 | 4.8 | 9.7 | 0.00 | 0.00 | 0.00 | 44 | 1008.9 |
| 20260501163355 | 15 | 321 | 3.2 | 14.5 | 0.00 | 0.00 | 0.00 | 45 | 1009.0 |
| 20260501162839 | 14 | 286 | 3.2 | 9.7 | 0.00 | 0.03 | 0.00 | 45 | 1009.1 |
| 20260501161356 | 14 | 28 | 3.2 | 14.5 | 0.00 | 0.03 | 0.00 | 52 | 1009.1 |
| 20260501160352 | 13 | 270 | 3.2 | 16.1 | 0.00 | 0.03 | 0.00 | 52 | 1009.2 |
| 20260501155351 | 13 | 355 | 3.2 | 9.7 | 0.00 | 0.03 | 0.00 | 50 | 1009.4 |